Location: Baht?l?
(36.8868°N, 30.5732°E)
Time: 18:56:21
(UTC+00:00)

Daily predictions for brighter satellites

Satellite Brightness Start Highest point End
(mag) Time Altitude Azimuth Time Altitude Azimuth Time Altitude Azimuth
ARGOS 4.0 16:08:29 10° SE 16:13:03 28° ENE 16:17:37 10° N
Cosmos 2228 Rocket 4.3 16:09:42 10° NNW 16:14:02 48° W 16:18:16 10° SSW
Cosmos 2184 Rocket 4.0 16:08:50 10° S 16:14:56 70° E 16:21:06 10° NNE
USA 234 3.8 16:09:10 10° ENE 16:15:15 40° SE 16:21:18 10° SSW
COSMO-SKYMED 1 2.9 16:11:05 10° N 16:15:26 72° WNW 16:19:44 10° SSW
Cosmos 2263 Rocket 2.2 16:10:11 10° NNW 16:15:46 78° ENE 16:21:19 10° SSE
Cosmos 968 Rocket 3.9 16:13:25 10° N 16:18:24 42° ENE 16:23:21 10° SE
Cosmos 1633 Rocket 3.0 16:18:22 10° S 16:22:45 75° E 16:27:11 10° N
Cosmos 1939 Rocket 4.3 16:21:11 10° S 16:24:50 42° W 16:28:30 10° NNW
H-2A R/B 2.3 16:19:50 10° SSE 16:25:05 54° ENE 16:30:24 10° N
SeaSat 1 2.8 16:21:07 10° NE 16:25:50 44° ESE 16:30:30 10° S
Cosmos 1437 3.2 16:23:07 10° NNW 16:25:58 58° W 16:28:47 10° S
Okean 1 3.9 16:23:26 10° NNE 16:27:11 35° E 16:30:54 10° SSE
Cosmos 1515 4.2 16:24:16 10° N 16:27:50 36° E 16:31:21 10° SSE
IRS-1C Rocket 4.1 16:23:18 10° SSE 16:28:32 71° ENE 16:33:47 10° N
Cosmos 1707 Rocket 3.6 16:24:52 10° N 16:29:15 89° WSW 16:33:35 10° S
CZ-2C R/B 3.2 16:24:29 10° NNE 16:29:29 36° E 16:34:20 10° SSE
Cosmos 2237 4.3 16:23:56 10° S 16:29:30 57° ESE 16:35:07 10° NNE
CZ-4 R/B 1.3 16:25:59 10° SSE 16:29:44 57° ENE 16:33:33 10° N
Meteor 1-20 Rocket 4.3 16:24:27 10° S 16:29:54 83° W 16:35:24 10° N
SAR-Lupe-4 3.6 16:35:28 10° NNE 16:38:59 57° E 16:42:30 10° S
CSL-04 Rocket 4.0 16:40:04 10° SE 16:45:17 44° ENE 16:50:30 10° N
ATLAS CENTAUR R/B 0.9 16:41:51 10° SSW 16:45:29 87° ESE 16:49:07 10° NNE
CSL-04 Debris 4.4 16:41:22 10° SE 16:46:33 48° ENE 16:51:46 10° N
Okean-O 2.5 16:43:32 10° SSE 16:47:57 77° ENE 16:52:23 10° N
Cosmos 2341 Rocket 4.3 16:43:59 10° SSE 16:49:54 44° E 16:55:48 10° NNE
Cosmos 1844 Rocket 3.5 16:45:50 10° N 16:50:44 30° ENE 16:54:25 15° ESE
Cosmos 44 Rocket 3.5 16:46:09 10° NNW 16:51:18 56° ENE 16:56:22 10° SE
Meteor 1-5 Rocket 4.4 16:48:12 10° SSE 16:53:11 43° E 16:58:19 10° NNE
Cosmos 2084 Rocket 4.1 16:51:41 10° NNW 16:55:48 38° NE 16:58:23 20° ESE
ERS-2 2.4 16:52:22 10° N 16:56:00 72° WNW 16:59:38 10° SSW
Cosmos 1666 3.4 16:53:04 10° SSE 16:56:19 29° E 16:59:35 10° NNE
SAR-Lupe-1 4.3 16:54:48 10° N 16:58:23 72° WNW 17:01:56 10° SSW
IRIS 4.0 16:55:42 10° WNW 16:58:44 55° NNE 16:59:30 35° ENE
Cosmos 1503 Rocket 4.2 16:53:46 10° N 16:58:46 47° ENE 17:03:43 10° SE
Cosmos 2360 Rocket 2.2 16:54:10 10° SSW 16:59:48 87° ESE 17:05:29 10° NNE
HJ-1C 3.2 16:56:52 10° SSE 17:00:10 76° ENE 17:03:29 10° N
Cosmos 1470 Rocket 3.9 16:57:26 10° SSW 17:01:54 71° W 17:06:21 10° N
Cosmos 1844 4.5 16:57:13 10° N 17:02:19 32° ENE 17:05:00 22° ESE
Ariane Rocket 4.3 17:01:53 20° ENE 17:02:22 20° ENE 17:06:00 10° NNE
DELTA 2 R/B (1) 4.1 17:01:58 10° SW 17:07:07 40° SSE 17:09:40 25° E
Cosmos 2218 Rocket 4.4 17:02:46 10° SSE 17:08:37 40° E 17:14:29 10° NNE
Cosmos 2333 Rocket 2.5 17:04:25 10° S 17:09:43 43° ESE 17:15:04 10° NE
Meteor 1-19 Rocket 4.4 17:03:49 10° NNW 17:09:44 80° W 17:15:26 10° S
Meteor 2-4 Rocket 3.8 17:08:47 10° N 17:14:38 66° E 17:20:31 10° SSE
Cosmos 1500 3.7 17:11:19 10° SSW 17:14:59 60° W 17:18:41 10° N
SL-08 RB Rocket 3.5 17:11:31 10° SSE 17:15:59 80° ENE 17:20:33 10° N
Cosmos 1703 Rocket 3.6 17:15:22 10° N 17:19:40 53° E 17:22:11 23° SSE
Cosmos 1933 Rocket 4.0 17:18:32 10° SSW 17:22:50 62° W 17:27:10 10° N
SME Rocket 4.0 17:16:07 10° NNE 17:23:04 51° E 17:27:46 10° S
BREEZE-M DEB (TANK) 3.6 17:24:27 10° WSW 17:29:26 32° NW 17:30:49 21° NNE
Cosmos 2322 Rocket 4.1 17:25:13 10° WSW 17:30:01 29° WNW 17:34:51 10° N
Cosmos 1959 Rocket 4.4 17:25:01 10° S 17:30:58 58° E 17:36:57 10° NNE
Hubble Space Telescope 3.2 17:33:59 10° S 17:34:47 12° S 17:34:47 12° S
Aureole 2 Rocket 3.6 17:33:58 10° NW 17:35:38 28° WNW 17:35:38 28° WNW
Cosmos 2242 Rocket 3.6 17:32:54 10° N 17:37:23 81° W 17:41:41 11° S
Lacrosse 4 Rocket 1.4 17:33:15 10° SSW 17:37:33 68° ESE 17:38:01 62° ENE
COSMOS 2428 2.7 17:34:12 10° S 17:39:43 56° ESE 17:42:29 29° NE
Cosmos 192 4.2 17:35:11 10° SSW 17:40:04 87° ESE 17:45:00 10° NNE
Helios 1A Rocket 4.3 17:36:33 10° S 17:40:21 39° W 17:44:10 10° NNW
MOS 1 4.4 17:42:50 48° E 17:43:30 50° ENE 17:48:58 10° N
CZ-3 Stage 3 3.8 17:41:46 10° WSW 17:44:01 19° SSW 17:44:01 19° SSW
SJ-6B 3.5 17:46:54 44° N 17:46:54 44° N 17:49:49 10° N
Meteor 1-11 Rocket 3.6 17:40:36 10° S 17:46:21 75° E 17:51:59 10° NNE
Cosmos 2219 Rocket 2.0 17:41:25 10° SSW 17:46:59 80° ESE 17:52:36 10° NNE
GP-B 4.2 17:43:53 10° SSW 17:48:06 44° W 17:52:20 10° NNW
MetOp-A 4.0 17:45:36 24° SSE 17:48:56 89° ENE 17:54:20 10° NNW
ASTEX 1 3.2 17:45:54 10° N 17:50:36 70° ENE 17:50:36 70° ENE
USA 238 DEB 4.5 17:49:42 10° S 17:53:17 31° SSE 17:53:17 31° SSE
USA 234 3.9 17:52:33 13° NE 17:58:18 54° NW 18:04:37 10° WSW
IRS-1A Rocket 4.1 18:03:53 74° SE 18:04:18 80° ENE 18:09:54 10° NNW
Meteor 1-13 Rocket 4.2 17:58:25 10° N 18:04:24 89° WSW 18:05:58 51° S
Cosmos 1066 Rocket 4.4 17:58:47 10° N 18:03:41 58° NE 18:03:41 58° NE
Cosmos 2322 4.4 18:01:16 10° SW 18:06:51 54° WNW 18:12:27 10° NNE
Okean 1-7 4.1 18:02:59 10° NNW 18:07:06 42° W 18:08:47 28° SW
CZ-3A R/B 4.1 17:58:37 10° WSW 18:08:58 27° SSW 18:09:40 26° S
Cosmos 1844 Rocket 4.1 18:29:37 10° NW 18:34:32 33° WSW 18:36:09 28° SW
Ariane Rocket 4.2 18:42:04 38° WNW 18:42:04 38° WNW 18:45:50 10° NNW
Cosmos 2278 Rocket 4.2 18:46:54 10° NNW 18:48:35 20° N 18:48:35 20° N
Cosmos 2333 Rocket 4.2 18:49:29 10° WSW 18:54:06 25° WNW 18:58:48 10° N
